Meteo Giornale » Osservazioni meteo Stati Uniti (USA) » Patuxent River

ore: 02:52 - Osservazioni Meteo Patuxent River
Lat. 38° 16' N Lon. 76° 24' W Alt. 12 metri s.l.m.

molto_nuvoloso

25 °C

Molto Nuvoloso

Temp. 24 Ore

23 °C

30 °C

Sud-Ovest

9.3 Km/h

Dew point 23 °C

Umidità 88 %

Visibilità  10 Km

Il sole sorge alle ore 06:35

Il sole tramonta alle ore 19:35

Data e Ora Cielo e Fenomeni T °C DP °C Um. % Pres. hPa Vis. km Vento km/h
Oggi h: 02:52 molto_nuvoloso Molto Nuvoloso 25 23 88 1017 10 SO 9.3
Oggi h: 00:52 molto_nuvoloso Molto Nuvoloso 25 24 94 1018 10 N 5.5
Ieri h: 22:52 molto_nuvoloso Molto Nuvoloso 26 24 88 1018 10 N 5.5
Ieri h: 21:52 molto_nuvoloso Molto Nuvoloso 26 23 83 1018 10 S/SE 7.4
Ieri h: 20:52 nuvoloso Nuvoloso 26 24 88 1018 10 S/SE 7.4
Ieri h: 19:52 molto_nuvoloso Molto Nuvoloso 26 24 88 1018 10 N 0
Ieri h: 18:52 molto_nuvoloso Molto Nuvoloso 27 24 83 1018 10 N 11.1
Ieri h: 17:52 molto_nuvoloso Molto Nuvoloso 28 24 78 1018 10 N/NE 9.3
Ieri h: 17:21 molto_nuvoloso Molto Nuvoloso 28 24 78 1018 10 N/NE 9.3
Ieri h: 16:52 nuvoloso_temporali Temporale nelle vicinanze 29 23 70 1017 10 N 5.5
Ieri h: 15:52 nuvoloso Nuvoloso 30 23 66 1018 10 E/NE 7.4
Ieri h: 15:32 nuvoloso Nuvoloso 29 24 74 1018 10 NE 9.3
Ieri h: 15:14 nuvoloso_temporali Temporale nelle vicinanze 29 23 70 1018 10 N/NE 9.3
Ieri h: 14:52 nuvoloso Nuvoloso 30 23 66 1018 10 N 7.4
Ieri h: 13:52 nuvoloso Nuvoloso 30 24 70 1018 10 E/SE 13
Ieri h: 12:52 nuvoloso Nuvoloso 29 23 70 1019 10 N 0
Ieri h: 11:52 nuvoloso Nuvoloso 28 23 74 1019 10 N 5.5
Ieri h: 09:52 nuvoloso Nuvoloso 27 23 78 1019 10 NO 7.4
Ieri h: 08:52 nuvoloso Nuvoloso 26 22 78 1019 10 O/SO 7.4
Ieri h: 07:52 sereno Sereno 25 23 88 1019 10 O/SO 7.4
Ieri h: 06:52 nuvoloso Nuvoloso 23 22 94 1018 10 S 7.4
Ieri h: 05:52 sereno Sereno 24 22 88 1018 10 N 0
Ieri h: 04:52 coperto Coperto 24 22 88 1018 10 N 0
Ieri h: 03:52 molto_nuvoloso Molto Nuvoloso 24 22 88 1018 10 E 7.4